Regional Weather Roundup
Issued by NWS

Home | Current Version | Previous Version | Text Only | Print | Product List | Glossary Off
Versions: 1 2 3 4 5 6 7 8 9 10 11 12 13 14 15 16 17 18 19 20 21 22 23 24 25 26 27 28 29 30 31 32 33 34 35 36 37 38 39 40 41 42 43 44 45 46 47 48 49 50

000
ASUS45 KSLC 270210
RWRUT

UTAH REGIONAL WEATHER ROUNDUP
NATIONAL WEATHER SERVICE SALT LAKE CITY UT
800 PM MDT TUE AUG 26 2014

UTZ001>011-023>025-270300-

NORTHERN UTAH

CITY           SKY/WX    TMP DP  RH WIND       PRES   REMARKS
HILL AFB       MOCLDY    68  46  45 SE6       30.14R
LOGAN          PTCLDY    67  49  52 SE22      30.12S
OGDEN          CLOUDY    71  42  35 S13       30.11R
PROVO AIRPORT  CLOUDY    68  48  49 W12G17    30.16R
SALT LAKE CITY CLOUDY    68  47  46 SE7       30.10F
VERNAL         CLOUDY    64  48  56 SW12      30.19R
WENDOVER       PTCLDY    72  39  30 NW13      30.10R
HEBER CITY     CLOUDY    66  43  42 E5        30.17S
WEST JORDAN    CLOUDY    66  55  68 NW5       30.14S

$$

UTZ012>022-026-027-270300-

SOUTHERN UTAH

CITY           SKY/WX    TMP DP  RH WIND       PRES   REMARKS
BRYCE CANYON   CLOUDY    51  43  74 S8        30.31R
CEDAR CITY     TSTM      53  46  77 N12       30.17R
MILFORD        LGT RAIN  58  52  80 N22G28    30.17R
MOAB/CYNLANDS  CLEAR     67  49  52 SE9       30.15F
PRICE          CLOUDY    64  48  56 E7        30.22F
ST GEORGE      CLOUDY    81  50  34 NE15      29.96R THUNDER
KANAB          MOCLDY    61  50  67 NW15      30.18R

$$

REGIONAL REPORTS     COLORADO/ARIZONA

CITY           SKY/WX    TMP DP  RH WIND       PRES   REMARKS
CRAIG, CO      MOCLDY    63  48  58 NE7       30.23R
GRAND JUNCTION LGT RAIN  62  56  80 CALM      30.19R
RIFLE          MOCLDY    65  55  70 E3        30.19F
MONTROSE       LGT RAIN  62  56  80 SE16      30.26R
CORTEZ         CLOUDY    59  52  77 NW12G18   30.28R
PAGE, AZ       CLOUDY    68  54  60 E6        30.14F
GRAND CANYON   PTCLDY    63  48  58 S7        30.26F
KINGMAN        PTCLDY    81  57  43 SW10      30.03S
FLAGSTAFF      MOCLDY    55  51  86 CALM      30.30S

$$

REGIONAL REPORTS    NEVADA/IDAHO/WYOMING

CITY           SKY/WX    TMP DP  RH WIND       PRES   REMARKS
LAS VEGAS, NV  PTCLDY    92  28  10 SW13      29.85R
ELY            MOCLDY    54  46  74 W5        30.21F
ELKO           MOCLDY    67  42  40 S7        30.14R
POCATELLO, ID  PTCLDY    75  45  34 CALM      30.13R
BURLEY         CLEAR     72  49  44 NW5       30.08S
EVANSTON, WY   MOCLDY    58  44  60 NE7       30.27F
ROCK SPRINGS   CLOUDY    60  40  47 S15       30.29R

$$



USA.gov is the U.S. government's official web portal to all federal, state and local government web resources and services.